CZ-6A DEB, 54584

Orbit data source: Space-Track

CZ-6A DEB, 54584 is space debris in SSO originally from a launch on Fri, 11 Nov 2022 UTC launched from the Taiyaun Space Center, China (TSC). Debris objects in space refer to the collection of defunct objects orbiting the Earth. Examples of debris include non-operational satellites, rocket bodies, and fragments generated from explosions, collisions, or faulty payload assembly.

Loading next visibility...
Identifier
54584, 2022-151ML
Orbit
SSO
Country
Flag of CNCN / PRC
Related business
Manufacturer
SAST
Mission
Spacecraft
Bus & Motor
Unknown
Mass
Unknown
Launch date (UTC)
2022-11-11 (3 years ago)
Launch vehicle
Unknown
Launch site
Taiyaun Space Center, China (TSC)
Object type
Payload
Rocket body
Debris
Shape & HBR
Unknown shape, 0.1 m
Radar Cross Section
Small (<0.1 m²)

Expand to show TLE details & history
Last TLE update: 20 hours ago

TLE from 20 hours ago
0 CZ-6A DEB
1 54584U 22151ML  25349.87462570  .00001404  00000-0  93005-3 0  9998
2 54584  98.8875 323.2939 0123837 224.1437 134.9793 13.99456004156831
Epoch: 2025-12-15T20:59Z
TLE epoch observation values (Epoch: 2025-12-15T20:59:27.660Z)
Latitude
-0.00001°
Longitude
-76.33827°
Altitude
962.794 km
Speed
7.338 km/s
True Right ascension
21h 33m 10s
True Declination
0° 00' 00"
Sunlit
Object was in daylight at epoch
Visualization orbit readout
Latitude
Unknown
Longitude
Unknown
Altitude
Unknown
Speed
Unknown
Apparent Right ascension
Unknown
Apparent Declination
Unknown
Sunlit
N/A
Visualization observer readout
Local Sidereal Time
15:43:16
Azimuth
Unknown
Elevation
Unknown
Doppler factor
Unknown
Orbital elements
Apogee altitude
982.916 km
Perigee altitude
802.832 km
Semi-major axis
7,271.011 km
Eccentricity
0.01238
Inclination
98.8875°
RAAN
323.2939°
Arg. of periapsis
224.1437°
True anomaly
135.97218°
Mean anomaly
134.9793°
Eccentric anomaly
135.47682°
Mean motion
3.50067 °/min
Orbital period
102.84 mins
BSTAR
0.00093005
Loading maneuver chart data...
Computing Atmospheric mass density...
Loading historical data...
Loading historical data...
Loading historical data...
Loading historical data...
Loading historical data...
Loading historical data...
Loading historical data...

Documentation

Showing up to 5 results
|